Flag for Germany Weather past 2 weeks in Minden, North Rhine-Westphalia, Germany

Now
68 °F

Scattered clouds.


Feels Like: 68 °F
Forecast: 56 / 66 °F
Wind: 6 mph from Southwest

Location: Bueckeburg

Current Time: Oct 1, 2014 at 4:22:17 PM

Latest Report: Oct 1, 2014 at 3:20 PM


Visibility: 6 mi

Pressure: 30.30 "Hg

Humidity: 69%

Dew point: 57 °F

Location of MindenLocation

Historic Weather in Minden — Graph

°F

Minden temperature yesterday

Maximum temperature yesterday: 68 °F (at 3:20 PM)
Minimum temperature yesterday: 55 °F (at 11:20 PM)
Average temperature yesterday: 61 °F

Past Weeks' High & Low Weather Summary

 TemperatureHumidityPressure
High79 °F (Sep 18, 4:20 PM)100% (Sep 17, 6:20 AM)30.39 "Hg (Sep 17, 6:20 AM)
Low43 °F (Sep 23, 6:20 AM)49% (Sep 27, 4:20 PM)29.80 "Hg (Sep 24, 5:20 PM)
Average60 °F80%30.06 "Hg
* Reported Sep 16 2:20 PM — Oct 1 2:20 PM, Minden, Weather by CustomWeather, © 2014

Note: Actual official high and low records may vary slightly from our data, if they occured in-between our weather recording intervals... More about our weather records

Advertising

Minden weather history for previous 24 hours

 ConditionsComfort  
Time TempWeatherWind HumidityBarometerVisibility
2:20 PM
Oct 1
66 °FScattered clouds.6 mph73%30.30 "Hg5 mi
1:20 PM63 °FBroken clouds.3 mph83%30.30 "Hg4 mi
12:20 PM61 °FPartly sunny.3 mph83%30.33 "Hg4 mi
11:20 AM61 °FPartly sunny.6 mph83%30.30 "Hg4 mi
10:56 AM61 °FFog.6 mph83%30.30 "Hg3 mi
10:20 AM61 °FFog.6 mph83%30.30 "Hg3 mi
9:20 AM59 °FFog.6 mph88%30.30 "Hg3 mi
8:20 AM57 °FFog.5 mph88%30.30 "Hg2 mi
7:20 AM54 °FFog.1 mph94%30.27 "Hg2 mi
6:48 AM54 °FFog.1 mph100%30.27 "Hg2 mi
6:20 AM55 °FFog.5 mph94%30.27 "Hg3 mi
5:20 AM57 °FPassing clouds.7 mph88%30.30 "Hg5 mi
4:20 AM54 °FCool.5 mph94%30.30 "Hg4 mi
3:20 AM54 °FCool.5 mph94%30.30 "Hg4 mi
2:20 AM54 °FPassing clouds.5 mph94%30.30 "Hg4 mi
1:20 AM54 °FPassing clouds.3 mph94%30.27 "Hg4 mi
12:20 AM55 °FPassing clouds.2 mph94%30.27 "Hg5 mi
11:20 PM
Sep 30
55 °FPassing clouds.3 mph88%30.27 "Hg6 mi
10:20 PM57 °FPassing clouds.5 mph88%30.27 "HgN/A
9:20 PM61 °FPassing clouds.2 mph77%30.27 "HgN/A
8:20 PM61 °FPassing clouds.5 mph77%30.27 "HgN/A
7:20 PM61 °FScattered clouds.6 mph83%30.27 "HgN/A
6:20 PM64 °FScattered clouds.6 mph78%30.24 "HgN/A
5:20 PM66 °FScattered clouds.7 mph68%30.24 "HgN/A
4:20 PM66 °FScattered clouds.10 mph68%30.24 "HgN/A
Weather by CustomWeather, © 2014

See weather overviewHow to use our weather pages